Preview of NWS' New Version of Forecast
This preview is not operational and should not be used for support decisions.

Regional Weather Roundup (RWR)

Issued by National Weather Service (NWS)

                            
000
ASUS43 KMKX 201210
RWRWI 

WISCONSIN REGIONAL WEATHER ROUNDUP
NATIONAL WEATHER SERVICE MILWAUKEE/SULLIVAN WI
700 AM CDT SAT APR 20 2019

NOTE: "FAIR" INDICATES FEW OR NO CLOUDS BELOW 12,000 FEET WITH NO
SIGNIFICANT WEATHER AND/OR OBSTRUCTIONS TO VISIBILITY.

WIZ001-002-006>008-014>016-023>028-201300-
NORTHWEST WISCONSIN
  
CITY           SKY/WX    TMP DP  RH WIND       PRES   REMARKS
SUPERIOR ARPT  FAIR      30  29  94 CALM      29.83S                  
6HR MIN TEMP:  29; 6HR MAX TEMP:  33;                                

ASHLAND        FAIR      36  26  67 S3        29.86S                  
6HR MIN TEMP:  30; 6HR MAX TEMP:  44;                                

HAYWARD        FAIR      30  27  88 CALM      29.88S                  
6HR MIN TEMP:  27; 6HR MAX TEMP:  31;                                

SIREN          FAIR      34  30  85 S5        29.86S WCI  30          
6HR MIN TEMP:  32; 6HR MAX TEMP:  37;                                

CUMBERLAND     FAIR      32  30  93 CALM      29.88S                  
RICE LAKE      FAIR      32  28  84 CALM      29.91R                  
6HR MIN TEMP:  30; 6HR MAX TEMP:  35;                                

CHETEK         FAIR      30  28  94 CALM      29.90S                  
6HR MIN TEMP:  28; 6HR MAX TEMP:  32;                                

LADYSMITH      FAIR      35  27  74 E3        29.92F                  
6HR MIN TEMP:  32; 6HR MAX TEMP:  35;                                

EAU CLAIRE     FAIR      30  28  92 CALM      29.91R                  
6HR MIN TEMP:  27; 6HR MAX TEMP:  37;                                

MENOMONIE      FAIR     N/A N/A N/A CALM      29.91R                  
NEW RICHMOND   FAIR      38  30  73 CALM      29.89R                  
6HR MIN TEMP:  35; 6HR MAX TEMP:  41;                                

OSCEOLA        FAIR      41  32  70 S7        29.91S                  
6HR MIN TEMP:  34; 6HR MAX TEMP:  41;                                

$$
 
WIZ003>005-009-010-017-018-201300-
NORTH CENTRAL WISCONSIN
  
CITY           SKY/WX    TMP DP  RH WIND       PRES   REMARKS
MANITOWISH WTR FAIR      29  25  86 CALM      29.90S                  
6HR MIN TEMP:  26; 6HR MAX TEMP:  32;                                

ARBOR VITAE    FAIR      32  27  81 CALM      29.91R                  
6HR MIN TEMP:  29; 6HR MAX TEMP:  32;                                

WOODRUFF       FAIR      32  27  81 CALM      29.91R                  
6HR MIN TEMP:  29; 6HR MAX TEMP:  32;                                

RHINELANDER    NOT AVBL                                               
EAGLE RIVER    FAIR      26  25  96 CALM      29.91R                  
6HR MIN TEMP:  24; 6HR MAX TEMP:  28;                                

LAND O LAKES   FAIR      26  25  96 CALM      29.92S                  
6HR MIN TEMP:  23; 6HR MAX TEMP:  27;                                

PHILLIPS       FAIR      31  23  70 CALM      29.90S                  
6HR MIN TEMP:  26; 6HR MAX TEMP:  34;                                

TOMAHAWK       FAIR      24  23  94 CALM      29.93R                  
6HR MIN TEMP:  22; 6HR MAX TEMP:  27;                                

MEDFORD        FAIR      34  22  63 S5        29.91R WCI  29          
6HR MIN TEMP:  30; 6HR MAX TEMP:  37;                                

MERRILL        FAIR      27  26  93 CALM      29.93R                  
6HR MIN TEMP:  24; 6HR MAX TEMP:  29;                                

$$
 
WIZ029-030-035-036-043>047-201300-
CENTRAL WISCONSIN
  
CITY           SKY/WX    TMP DP  RH WIND       PRES   REMARKS
WAUSAU         NOT AVBL                                               
MOSINEE        CLEAR     28  25  86 VRB3      29.93S                  
MARSHFIELD     NOT AVBL                                               
STEVENS POINT  FAIR      26  24  94 CALM      29.94S                  
6HR MIN TEMP:  24; 6HR MAX TEMP:  31;                                

WAUPACA        FAIR      31  29  93 CALM      29.93S                  
6HR MIN TEMP:  29; 6HR MAX TEMP:  35;                                

WAUTOMA        FAIR      31  28  89 CALM      29.93                   
6HR MIN TEMP:  25; 6HR MAX TEMP:  33;                                

WISC RAPIDS    FAIR      29  23  78 CALM      29.94R                  
6HR MIN TEMP:  27; 6HR MAX TEMP:  35;                                

CAMP DOUGLAS   FAIR      27  27 100 CALM      29.93R                  
6HR MIN TEMP:  23; 6HR MAX TEMP:  33;                                

$$
 
WIZ011>013-019>022-031-037>040-048>050-201300-
NORTHEAST WISCONSIN
  
CITY           SKY/WX    TMP DP  RH WIND       PRES   REMARKS
ANTIGO         FAIR      31  29  92 CALM      29.93S                  
6HR MIN TEMP:  27; 6HR MAX TEMP:  33;                                

SHAWANO        FAIR      32  27  81 CALM      29.94R                  
6HR MIN TEMP:  29; 6HR MAX TEMP:  32;                                

OCONTO         FAIR      30  26  87 CALM      29.93S                  
6HR MIN TEMP:  24; 6HR MAX TEMP:  32;                                

STURGEON BAY   FAIR      38  24  57 NE5       29.92  WCI  34          
6HR MIN TEMP:  31; 6HR MAX TEMP:  41;                                

GREEN BAY      FAIR      33  27  78 NW6       29.93R WCI  28          
6HR MIN TEMP:  32; 6HR MAX TEMP:  35;                                

MANITOWOC      FAIR      36  21  54 NW6       29.92S WCI  31          
6HR MIN TEMP:  32; 6HR MAX TEMP:  37;                                

APPLETON       CLEAR     34  18  51 N8        29.91R WCI  27          
CLINTONVILLE   FAIR      32  28  84 CALM      29.93S                  
6HR MIN TEMP:  28; 6HR MAX TEMP:  37;                                

OSHKOSH        FAIR      34  25  69 NW6       29.92R WCI  29          
6HR MIN TEMP:  30; 6HR MAX TEMP:  38;                                

$$
 
WIZ032>034-041-042-053>061-201300-
SOUTHWEST WISCONSIN
  
CITY           SKY/WX    TMP DP  RH WIND       PRES   REMARKS
LA CROSSE      FAIR      36  29  75 SE5       29.93R WCI  32          
6HR MIN TEMP:  34; 6HR MAX TEMP:  42;                                

SPARTA         FAIR      26  25  95 CALM      29.94S                  
6HR MIN TEMP:  24; 6HR MAX TEMP:  31;                                

VIROQUA        FAIR      45  24  43 S3        29.93R                  
6HR MIN TEMP:  39; 6HR MAX TEMP:  48;                                

BOSCOBEL       FAIR      30  27  88 CALM      29.95R                  
6HR MIN TEMP:  28; 6HR MAX TEMP:  36;                                

PRAIRIE DU CHI FAIR      32  28  83 E3        29.94R                  
6HR MIN TEMP:  32; 6HR MAX TEMP:  39;                                

PLATTEVILLE    FAIR      35  25  66 CALM      29.92R                  
6HR MIN TEMP:  35; 6HR MAX TEMP:  44;                                

$$

WIZ056-057-062-063-064-067-068-201300-
SOUTH CENTRAL WISCONSIN
  
CITY           SKY/WX    TMP DP  RH WIND       PRES   REMARKS
REEDSBURG      FAIR      30  30 100 CALM      29.93R                  
6HR MIN TEMP:  29; 6HR MAX TEMP:  38;                                

BARABOO/DELLS  FAIR      29  26  85 CALM      29.92S                  
6HR MIN TEMP:  28; 6HR MAX TEMP:  35;                                

LONE ROCK      FAIR      30  27  88 W3        29.94R                  
6HR MIN TEMP:  27; 6HR MAX TEMP:  37;                                

MINERAL POINT  FAIR      37  25  60 CALM      29.92R                  
MADISON        FAIR      32  25  75 N5        29.91S WCI  27          
6HR MIN TEMP:  28; 6HR MAX TEMP:  38;                                

MIDDLETON      FAIR      33  28  82 CALM      29.92S                  
6HR MIN TEMP:  30; 6HR MAX TEMP:  35;                                

WATERTOWN      FAIR      32  25  74 NW5       29.90R WCI  28          
6HR MIN TEMP:  27; 6HR MAX TEMP:  36;                                

MONROE         FAIR      38  20  48 MISG      29.90R                  
6HR MIN TEMP:  37; 6HR MAX TEMP:  42;                                

JANESVILLE     CLEAR     34  25  69 CALM      29.89R                  
$$
 
WIZ051-052-058>065-066-070>072-201300-
SOUTHEAST WISCONSIN
  
CITY           SKY/WX    TMP DP  RH WIND       PRES   REMARKS
MILWAUKEE      FAIR      42  24  49 N16       29.87S                  
6HR MIN TEMP:  41; 6HR MAX TEMP:  43;                                

WAUKESHA       CLEAR     37  18  44 N5        29.89S WCI  34          
MILWAUKEE/TIMM FAIR      36  19  51 CALM      29.89S                  
RACINE         FAIR      40  28  62 N16G24    29.88S WCI  31          
6HR MIN TEMP:  39; 6HR MAX TEMP:  42;                                

KENOSHA        FAIR      38  27  64 N8        29.86R WCI  32          
6HR MIN TEMP:  35; 6HR MAX TEMP:  41;                                

FOND DU LAC    FLURRIES  32  26  78 NW7       29.91R WCI  26          
6HR MIN TEMP:  27; 6HR MAX TEMP:  37; 6HR PCP: TRACE;                

SHEBOYGAN      FAIR      38  20  48 N6        29.90S WCI  33          
6HR MIN TEMP:  33; 6HR MAX TEMP:  38;                                

WEST BEND      FAIR      36  21  55 CALM      29.89S                  
JUNEAU         FAIR      33  25  73 CALM      29.92R                  
6HR MIN TEMP:  32; 6HR MAX TEMP:  38;                                

$$

LSZ147-162-201300-
LAKE SUPERIOR
  
STATION/POSITION TIME  TEMP    WIND        PRES    WAVE
                       AIR SEA DIR/SP/G            HT/PER
                 (UTC) (F)     (DEG/KT/KT) (MB)    (FT/S)
$$
 
LMZ867-665-643>646-201300-
LAKE MICHIGAN
  
STATION/POSITION TIME  TEMP    WIND        PRES    WAVE
                       AIR SEA DIR/SP/G            HT/PER
                 (UTC) (F)     (DEG/KT/KT) (MB)    (FT/S)
NORTHPORT PIER   1140   35     310/  1/  2 1013.5S
KEWAUNEE LAKESHO 1148   39     360/  3/  9 1012.3F
SHEBOYGAN LAKESH 1200   40      10/ 13/ 14 1012.9R
MILWAUKEE LAKESH 1150   41                   N/A
KENOSHA   LAKESH 1200   42     360/ 20/ 24 1011.2
$$

TC  - TEMPERATURE IN CELSIUS
VSB - VISIBILITY IN STATUTE MILES
WCI - WIND CHILL I